Location: Strada George Coșbuc
(47.6577°N, 23.5639°E)
Time: 07:48:13
(UTC+03:00)

ISS - Pass Details

Date: 01 October 2017
Orbit: 401 x 407 km, 51.6° (Epoch: 24 September)

Event Time Altitude Azimuth Distance (km) Brightness Sun altitude
Rises 20:17:27 0° 256° (WSW) 2,314 1.4 -13.0°
Reaches altitude 10° 20:19:32 10° 260° (W) 1,457 0.2 -13.3°
Maximum altitude 20:22:47 61° 342° (NNW) 462 -3.5 -13.9°
Enters shadow 20:24:44 22° 58° (ENE) 957 -2.4 -14.2°
